,,,PA_Meas_PMT16A,,PR_Meas_QMR101_102,,RH_Meas_QMH101,,SR_Meas_QMS101,,TA_Meas_QMH101,,GenWind,,GenWind,
date,time,status,PA,status,PR,status,RH,status,SR,status,TA,status,DirAvg,status,SpdAvg,
2008-05-20, 00:00:04,VALID,1005.96,VALID,0,VALID,94.7812,VALID,0,VALID,23.7832,VALID,84,VALID,0.534375,
2008-05-20, 00:01:04,VALID,1005.94,VALID,0,VALID,94.766,VALID,0,VALID,23.8045,VALID,84,VALID,0.244922,
2008-05-20, 00:02:04,VALID,1005.97,VALID,0,VALID,94.7278,VALID,0,VALID,23.7832,VALID,84,VALID,0.105469,
2008-05-20, 00:03:04,VALID,1006,VALID,0,VALID,94.7125,VALID,0,VALID,23.7637,VALID,84,VALID,0.126953,
2008-05-20, 00:04:04,VALID,1006.01,VALID,0,VALID,94.7278,VALID,0,VALID,23.7832,VALID,84,VALID,0.231641,
2008-05-20, 00:05:04,VALID,1006.04,VALID,0,VALID,94.682,VALID,0,VALID,23.7637,VALID,83,VALID,0.313672,
2008-05-20, 00:06:04,VALID,1006.05,VALID,0,VALID,94.6973,VALID,0,VALID,23.7443,VALID,65,VALID,0.546484,
2008-05-20, 00:07:04,VALID,1006.05,VALID,0,VALID,94.6668,VALID,0,VALID,23.7035,VALID,51,VALID,0.525391,
2008-05-20, 00:08:04,VALID,1006.05,VALID,0,VALID,94.7431,VALID,0.100563,VALID,23.6841,VALID,51,VALID,0.466016,
2008-05-20, 00:09:04,VALID,1006.04,VALID,0,VALID,94.682,VALID,0.100563,VALID,23.6434,VALID,51,VALID,0.238281,
2008-05-20, 00:10:04,VALID,1006.01,VALID,0,VALID,94.6286,VALID,0.100563,VALID,23.6257,VALID,51,VALID,0.399219,
2008-05-20, 00:11:04,VALID,1006.02,VALID,0,VALID,94.621,VALID,0.100563,VALID,23.5655,VALID,51,VALID,0.423828,
2008-05-20, 00:12:04,VALID,1006.02,VALID,0,VALID,94.6134,VALID,0,VALID,23.5691,VALID,51,VALID,0.4625,
2008-05-20, 00:13:04,VALID,1006.01,VALID,0,VALID,94.7049,VALID,0.100563,VALID,23.5089,VALID,23,VALID,0.616797,
2008-05-20, 00:14:04,VALID,1005.99,VALID,0,VALID,95.0177,VALID,0,VALID,23.5496,VALID,4,VALID,0.623438,
2008-05-20, 00:15:04,VALID,1005.99,VALID,0,VALID,95.1321,VALID,0,VALID,23.5691,VALID,360,VALID,0.7625,
2008-05-20, 00:16:04,VALID,1005.98,VALID,0,VALID,95.0864,VALID,0.100563,VALID,23.5673,VALID,360,VALID,0.566406,
2008-05-20, 00:17:04,VALID,1005.97,VALID,0,VALID,95.0864,VALID,0,VALID,23.5673,VALID,360,VALID,0.484766,
2008-05-20, 00:18:04,VALID,1005.96,VALID,0,VALID,95.1169,VALID,0,VALID,23.5673,VALID,360,VALID,0.530469,
2008-05-20, 00:19:04,VALID,1005.92,VALID,0,VALID,95.0864,VALID,0,VALID,23.5691,VALID,360,VALID,0.410156,
2008-05-20, 00:20:04,VALID,1005.91,VALID,0,VALID,95.0864,VALID,0,VALID,23.5478,VALID,360,VALID,0.383203,
2008-05-20, 00:21:04,VALID,1005.91,VALID,0,VALID,95.0406,VALID,0,VALID,23.5496,VALID,360,VALID,0.241016,
2008-05-20, 00:22:04,VALID,1005.89,VALID,0,VALID,95.0024,VALID,0,VALID,23.5302,VALID,360,VALID,0.255469,
2008-05-20, 00:23:04,VALID,1005.9,VALID,0,VALID,95.0177,VALID,0,VALID,23.5107,VALID,360,VALID,0.153906,
2008-05-20, 00:24:04,VALID,1005.89,VALID,0,VALID,95.1169,VALID,0.100563,VALID,23.4894,VALID,360,VALID,0,
2008-05-20, 00:25:04,VALID,1005.9,VALID,0,VALID,95.0864,VALID,0,VALID,23.4894,VALID,360,VALID,0,
2008-05-20, 00:26:04,VALID,1005.89,VALID,0,VALID,95.1474,VALID,0,VALID,23.47,VALID,360,VALID,0,
2008-05-20, 00:27:04,VALID,1005.87,VALID,0,VALID,95.1703,VALID,0,VALID,23.47,VALID,360,VALID,0,
2008-05-20, 00:28:04,VALID,1005.86,VALID,0,VALID,95.1932,VALID,0.100563,VALID,23.47,VALID,360,VALID,0.210156,
2008-05-20, 00:29:04,VALID,1005.85,VALID,0,VALID,95.2161,VALID,0,VALID,23.4912,VALID,360,VALID,0.396875,
2008-05-20, 00:30:04,VALID,1005.86,VALID,0,VALID,95.2237,VALID,0,VALID,23.47,VALID,360,VALID,0.521875,
2008-05-20, 00:31:04,VALID,1005.85,VALID,0,VALID,95.2313,VALID,0,VALID,23.4912,VALID,360,VALID,0.617969,
2008-05-20, 00:32:04,VALID,1005.84,VALID,0,VALID,95.1474,VALID,0,VALID,23.4311,VALID,360,VALID,0.551562,
2008-05-20, 00:33:04,VALID,1005.83,VALID,0,VALID,95.0711,VALID,0,VALID,23.3921,VALID,360,VALID,0.544531,
2008-05-20, 00:34:04,VALID,1005.79,VALID,0,VALID,95.0864,VALID,0.100563,VALID,23.3532,VALID,360,VALID,0.485156,
2008-05-20, 00:35:04,VALID,1005.77,VALID,0,VALID,95.1016,VALID,0,VALID,23.3337,VALID,360,VALID,0.350781,
2008-05-20, 00:36:04,VALID,1005.71,VALID,0,VALID,95.1855,VALID,0,VALID,23.3355,VALID,360,VALID,0.371484,
2008-05-20, 00:37:04,VALID,1005.68,VALID,0,VALID,95.2466,VALID,0,VALID,23.3143,VALID,360,VALID,0.324609,
2008-05-20, 00:38:04,VALID,1005.65,VALID,0,VALID,95.2847,VALID,0,VALID,23.3355,VALID,360,VALID,0.215234,
2008-05-20, 00:39:04,VALID,1005.61,VALID,0,VALID,95.361,VALID,0,VALID,23.355,VALID,360,VALID,0,
2008-05-20, 00:40:04,VALID,1005.62,VALID,0,VALID,95.4144,VALID,0.100563,VALID,23.3532,VALID,360,VALID,0,
2008-05-20, 00:41:04,VALID,1005.63,VALID,0,VALID,95.3991,VALID,0.100563,VALID,23.3744,VALID,360,VALID,0,
2008-05-20, 00:42:04,VALID,1005.64,VALID,0,VALID,95.4983,VALID,0,VALID,23.3727,VALID,360,VALID,0.272656,
2008-05-20, 00:43:04,VALID,1005.65,VALID,0,VALID,95.6662,VALID,0,VALID,23.4328,VALID,360,VALID,0.470313,
2008-05-20, 00:44:04,VALID,1005.63,VALID,0,VALID,95.8721,VALID,0,VALID,23.4894,VALID,360,VALID,0.371094,
2008-05-20, 00:45:04,VALID,1005.65,VALID,0,VALID,95.8187,VALID,0,VALID,23.5496,VALID,360,VALID,0.455859,
2008-05-20, 00:46:04,VALID,1005.65,VALID,0,VALID,95.7577,VALID,0,VALID,23.608,VALID,360,VALID,0.546875,
2008-05-20, 00:47:04,VALID,1005.65,VALID,0,VALID,95.5822,VALID,0,VALID,23.5691,VALID,360,VALID,0.637891,
2008-05-20, 00:48:04,VALID,1005.65,VALID,0,VALID,95.5441,VALID,0,VALID,23.5691,VALID,360,VALID,0.718359,
2008-05-20, 00:49:04,VALID,1005.66,VALID,0,VALID,95.4678,VALID,0,VALID,23.5302,VALID,360,VALID,0.623438,
2008-05-20, 00:50:04,VALID,1005.62,VALID,0,VALID,95.5746,VALID,0,VALID,23.5302,VALID,360,VALID,0.638672,
2008-05-20, 00:51:04,VALID,1005.65,VALID,0,VALID,95.9255,VALID,0,VALID,23.6098,VALID,359,VALID,0.469531,
2008-05-20, 00:52:04,VALID,1005.65,VALID,0,VALID,95.9179,VALID,0,VALID,23.6664,VALID,358,VALID,0.505078,
2008-05-20, 00:53:04,VALID,1005.67,VALID,0,VALID,95.628,VALID,0,VALID,23.6469,VALID,358,VALID,0.517969,
2008-05-20, 00:54:04,VALID,1005.67,VALID,0,VALID,95.5365,VALID,0,VALID,23.6275,VALID,358,VALID,0.547266,
2008-05-20, 00:55:04,VALID,1005.67,VALID,0,VALID,95.6433,VALID,0,VALID,23.6275,VALID,357,VALID,0.522656,
2008-05-20, 00:56:04,VALID,1005.67,VALID,0,VALID,95.5288,VALID,0,VALID,23.5885,VALID,357,VALID,0.562891,
2008-05-20, 00:57:04,VALID,1005.67,VALID,0,VALID,95.5136,VALID,0,VALID,23.5885,VALID,357,VALID,0.523828,
2008-05-20, 00:58:04,VALID,1005.66,VALID,0,VALID,95.5365,VALID,0,VALID,23.5691,VALID,357,VALID,0.411328,
2008-05-20, 00:59:04,VALID,1005.67,VALID,0,VALID,95.5288,VALID,0,VALID,23.5514,VALID,357,VALID,0.283984,
2008-05-20, 01:00:04,VALID,1005.66,VALID,0,VALID,95.5441,VALID,0,VALID,23.5496,VALID,357,VALID,0.251953,
2008-05-20, 01:01:04,VALID,1005.66,VALID,0,VALID,95.5594,VALID,0,VALID,23.5496,VALID,357,VALID,0.263281,
2008-05-20, 01:02:04,VALID,1005.65,VALID,0,VALID,95.5441,VALID,0.100563,VALID,23.5107,VALID,357,VALID,0.0679687,
2008-05-20, 01:03:04,VALID,1005.62,VALID,0,VALID,95.5517,VALID,0,VALID,23.5107,VALID,357,VALID,0.281641,
2008-05-20, 01:04:04,VALID,1005.62,VALID,0,VALID,95.7119,VALID,0,VALID,23.4894,VALID,357,VALID,0.4125,
2008-05-20, 01:05:04,VALID,1005.61,VALID,0,VALID,95.689,VALID,0,VALID,23.5302,VALID,357,VALID,0.249219,
2008-05-20, 01:06:04,VALID,1005.61,VALID,0,VALID,95.6585,VALID,0,VALID,23.5496,VALID,357,VALID,0.309766,
2008-05-20, 01:07:04,VALID,1005.62,VALID,0,VALID,95.6814,VALID,0,VALID,23.5302,VALID,356,VALID,0.208203,
2008-05-20, 01:08:04,VALID,1005.63,VALID,0,VALID,95.6509,VALID,0,VALID,23.5302,VALID,356,VALID,0.0398437,
2008-05-20, 01:09:04,VALID,1005.64,VALID,0,VALID,95.6509,VALID,0,VALID,23.5496,VALID,356,VALID,0.0878906,
2008-05-20, 01:10:04,VALID,1005.63,VALID,0,VALID,95.6051,VALID,0,VALID,23.5302,VALID,356,VALID,0.157813,
2008-05-20, 01:11:04,VALID,1005.65,VALID,0,VALID,95.5822,VALID,0,VALID,23.5107,VALID,356,VALID,0.0285156,
2008-05-20, 01:12:04,VALID,1005.63,VALID,0,VALID,95.5975,VALID,0,VALID,23.4912,VALID,356,VALID,0.322266,
2008-05-20, 01:13:04,VALID,1005.65,VALID,0,VALID,95.5517,VALID,0,VALID,23.4718,VALID,356,VALID,0.291016,
2008-05-20, 01:14:04,VALID,1005.65,VALID,0,VALID,95.567,VALID,0,VALID,23.4523,VALID,356,VALID,0.454297,
2008-05-20, 01:15:04,VALID,1005.65,VALID,0,VALID,95.5212,VALID,0,VALID,23.4523,VALID,356,VALID,0.535156,
2008-05-20, 01:16:04,VALID,1005.66,VALID,0,VALID,95.4831,VALID,0,VALID,23.3921,VALID,356,VALID,0.543359,
2008-05-20, 01:17:04,VALID,1005.68,VALID,0,VALID,95.4754,VALID,0,VALID,23.3744,VALID,356,VALID,0.450781,
2008-05-20, 01:18:04,VALID,1005.68,VALID,0,VALID,95.5288,VALID,0,VALID,23.3744,VALID,356,VALID,0.50625,
2008-05-20, 01:19:04,VALID,1005.66,VALID,0,VALID,95.5899,VALID,0,VALID,23.355,VALID,356,VALID,0.597266,
2008-05-20, 01:20:04,VALID,1005.64,VALID,0,VALID,95.6433,VALID,0,VALID,23.3744,VALID,345,VALID,0.737891,
2008-05-20, 01:21:04,VALID,1005.63,VALID,0,VALID,95.6356,VALID,0,VALID,23.355,VALID,350,VALID,0.560547,
2008-05-20, 01:22:04,VALID,1005.61,VALID,0,VALID,95.6433,VALID,0,VALID,23.355,VALID,350,VALID,0.56875,
2008-05-20, 01:23:04,VALID,1005.6,VALID,0,VALID,95.7196,VALID,0,VALID,23.3744,VALID,350,VALID,0.451953,
2008-05-20, 01:24:04,VALID,1005.62,VALID,0,VALID,95.7501,VALID,0,VALID,23.3744,VALID,350,VALID,0.288672,
2008-05-20, 01:25:04,VALID,1005.6,VALID,0,VALID,95.7806,VALID,0,VALID,23.3939,VALID,350,VALID,0.215625,
2008-05-20, 01:26:04,VALID,1005.58,VALID,0,VALID,95.8035,VALID,0,VALID,23.4134,VALID,350,VALID,0.2875,
2008-05-20, 01:27:04,VALID,1005.58,VALID,0,VALID,95.8187,VALID,0,VALID,23.4328,VALID,350,VALID,0.221875,
2008-05-20, 01:28:04,VALID,1005.62,VALID,0,VALID,95.8569,VALID,0,VALID,23.4523,VALID,350,VALID,0.468359,
2008-05-20, 01:29:04,VALID,1005.58,VALID,0,VALID,95.8416,VALID,0,VALID,23.4912,VALID,350,VALID,0.557031,
2008-05-20, 01:30:04,VALID,1005.6,VALID,0,VALID,95.8187,VALID,0,VALID,23.4718,VALID,351,VALID,0.492578,
2008-05-20, 01:31:04,VALID,1005.58,VALID,0,VALID,95.6814,VALID,0,VALID,23.4718,VALID,351,VALID,0.499219,
2008-05-20, 01:32:04,VALID,1005.61,VALID,0,VALID,95.6204,VALID,0,VALID,23.4116,VALID,352,VALID,0.665234,
2008-05-20, 01:33:04,VALID,1005.58,VALID,0,VALID,95.6433,VALID,0,VALID,23.4346,VALID,355,VALID,0.671875,
2008-05-20, 01:34:04,VALID,1005.62,VALID,0,VALID,95.5975,VALID,0,VALID,23.3939,VALID,355,VALID,0.610156,
2008-05-20, 01:35:04,VALID,1005.6,VALID,0,VALID,95.5975,VALID,0,VALID,23.3744,VALID,355,VALID,0.619922,
2008-05-20, 01:36:04,VALID,1005.6,VALID,0,VALID,95.6356,VALID,0.100563,VALID,23.355,VALID,355,VALID,0.570313,
2008-05-20, 01:37:04,VALID,1005.62,VALID,0,VALID,95.6204,VALID,0,VALID,23.3143,VALID,356,VALID,0.682422,
2008-05-20, 01:38:04,VALID,1005.61,VALID,0,VALID,95.5822,VALID,0,VALID,23.2966,VALID,356,VALID,0.698828,
2008-05-20, 01:39:04,VALID,1005.59,VALID,0,VALID,95.5899,VALID,0,VALID,23.2771,VALID,356,VALID,0.604688,
2008-05-20, 01:40:04,VALID,1005.56,VALID,0,VALID,95.7424,VALID,0,VALID,23.2771,VALID,350,VALID,0.637109,
2008-05-20, 01:41:04,VALID,1005.59,VALID,0,VALID,95.8569,VALID,0,VALID,23.316,VALID,350,VALID,0.598437,
2008-05-20, 01:42:04,VALID,1005.58,VALID,0,VALID,95.895,VALID,0,VALID,23.3744,VALID,355,VALID,0.583984,
2008-05-20, 01:43:04,VALID,1005.55,VALID,0,VALID,95.8721,VALID,0,VALID,23.3744,VALID,355,VALID,0.570703,
2008-05-20, 01:44:04,VALID,1005.59,VALID,0,VALID,95.8416,VALID,0,VALID,23.3744,VALID,350,VALID,0.510156,
2008-05-20, 01:45:04,VALID,1005.6,VALID,0,VALID,95.834,VALID,0,VALID,23.3744,VALID,350,VALID,0.412891,
2008-05-20, 01:46:04,VALID,1005.62,VALID,0,VALID,95.8874,VALID,0,VALID,23.3939,VALID,353,VALID,0.713281,
2008-05-20, 01:47:04,VALID,1005.63,VALID,0,VALID,95.9332,VALID,0,VALID,23.4328,VALID,3,VALID,0.584766,
2008-05-20, 01:48:04,VALID,1005.63,VALID,0,VALID,95.9332,VALID,0,VALID,23.4328,VALID,357,VALID,0.687891,
2008-05-20, 01:49:04,VALID,1005.64,VALID,0,VALID,95.8798,VALID,0,VALID,23.4523,VALID,338,VALID,0.6625,
2008-05-20, 01:50:04,VALID,1005.63,VALID,0,VALID,95.8645,VALID,0,VALID,23.4523,VALID,353,VALID,0.675,
2008-05-20, 01:51:04,VALID,1005.61,VALID,0,VALID,95.834,VALID,0,VALID,23.4328,VALID,351,VALID,0.508984,
2008-05-20, 01:52:04,VALID,1005.61,VALID,0,VALID,95.7882,VALID,0,VALID,23.4116,VALID,352,VALID,0.813672,
2008-05-20, 01:53:04,VALID,1005.61,VALID,0,VALID,95.7882,VALID,0,VALID,23.4328,VALID,350,VALID,0.655078,
2008-05-20, 01:54:04,VALID,1005.6,VALID,0,VALID,95.7501,VALID,0,VALID,23.4134,VALID,356,VALID,0.711719,
2008-05-20, 01:55:04,VALID,1005.6,VALID,0,VALID,95.7882,VALID,0,VALID,23.3939,VALID,352,VALID,0.882422,
2008-05-20, 01:56:04,VALID,1005.58,VALID,0,VALID,95.8264,VALID,0,VALID,23.4346,VALID,356,VALID,0.803906,
2008-05-20, 01:57:04,VALID,1005.6,VALID,0,VALID,95.8035,VALID,0,VALID,23.3727,VALID,352,VALID,0.896094,
2008-05-20, 01:58:04,VALID,1005.59,VALID,0,VALID,95.8874,VALID,0,VALID,23.4134,VALID,355,VALID,0.929297,
2008-05-20, 01:59:04,VALID,1005.56,VALID,0,VALID,95.9103,VALID,0,VALID,23.4523,VALID,350,VALID,0.839063,
2008-05-20, 02:00:04,VALID,1005.56,VALID,0,VALID,95.9484,VALID,0,VALID,23.4505,VALID,347,VALID,0.628125,
2008-05-20, 02:01:04,VALID,1005.55,VALID,0,VALID,95.9027,VALID,0,VALID,23.493,VALID,341,VALID,0.711719,
2008-05-20, 02:02:04,VALID,1005.5,VALID,0,VALID,95.8874,VALID,0,VALID,23.4912,VALID,346,VALID,0.771094,
2008-05-20, 02:03:04,VALID,1005.51,VALID,0,VALID,95.8874,VALID,0,VALID,23.4912,VALID,348,VALID,0.549609,
2008-05-20, 02:04:04,VALID,1005.51,VALID,0,VALID,95.8645,VALID,0,VALID,23.4912,VALID,348,VALID,0.45,
2008-05-20, 02:05:04,VALID,1005.47,VALID,0,VALID,95.8264,VALID,0,VALID,23.4912,VALID,348,VALID,0.380859,
2008-05-20, 02:06:04,VALID,1005.47,VALID,0,VALID,95.8874,VALID,0,VALID,23.4718,VALID,348,VALID,0.409766,
2008-05-20, 02:07:04,VALID,1005.49,VALID,0,VALID,95.8493,VALID,0,VALID,23.4912,VALID,348,VALID,0.372656,
2008-05-20, 02:08:04,VALID,1005.51,VALID,0,VALID,95.7959,VALID,0,VALID,23.4912,VALID,348,VALID,0.478906,
2008-05-20, 02:09:04,VALID,1005.49,VALID,0,VALID,95.8035,VALID,0,VALID,23.4718,VALID,348,VALID,0.514844,
2008-05-20, 02:10:04,VALID,1005.5,VALID,0,VALID,95.8721,VALID,0,VALID,23.4718,VALID,350,VALID,0.626172,
2008-05-20, 02:11:04,VALID,1005.5,VALID,0,VALID,95.9179,VALID,0,VALID,23.5107,VALID,349,VALID,0.562109,
2008-05-20, 02:12:04,VALID,1005.49,VALID,0,VALID,96.0018,VALID,0,VALID,23.5496,VALID,342,VALID,0.656641,
2008-05-20, 02:13:04,VALID,1005.48,VALID,0,VALID,96.04,VALID,0,VALID,23.5673,VALID,338,VALID,0.503516,
2008-05-20, 02:14:04,VALID,1005.48,VALID,0,VALID,95.9942,VALID,0,VALID,23.6275,VALID,337,VALID,0.0953125,
2008-05-20, 02:15:04,VALID,1005.47,VALID,0,VALID,96.0171,VALID,0,VALID,23.6469,VALID,337,VALID,0.271484,
2008-05-20, 02:16:05,VALID,1005.45,VALID,0,VALID,95.9561,VALID,0,VALID,23.6859,VALID,349,VALID,0.392578,
2008-05-20, 02:17:05,VALID,1005.44,VALID,0,VALID,95.9179,VALID,0,VALID,23.6646,VALID,349,VALID,0.492188,
2008-05-20, 02:18:05,VALID,1005.41,VALID,0,VALID,95.8798,VALID,0,VALID,23.7053,VALID,348,VALID,0.126953,
2008-05-20, 02:19:05,VALID,1005.39,VALID,0,VALID,96.0095,VALID,0,VALID,23.723,VALID,338,VALID,0.374219,
2008-05-20, 02:20:05,VALID,1005.39,VALID,0,VALID,95.9637,VALID,0,VALID,23.8027,VALID,338,VALID,0.245312,
2008-05-20, 02:21:05,VALID,1005.34,VALID,0,VALID,95.8874,VALID,0,VALID,23.8027,VALID,338,VALID,0.173438,
2008-05-20, 02:22:05,VALID,1005.32,VALID,0,VALID,95.8264,VALID,0,VALID,23.7832,VALID,337,VALID,0.3625,
2008-05-20, 02:23:05,VALID,1005.32,VALID,0,VALID,96.0323,VALID,0,VALID,23.8416,VALID,290,VALID,0.840234,
2008-05-20, 02:24:05,VALID,1005.32,VALID,0,VALID,96.0476,VALID,0,VALID,23.9213,VALID,267,VALID,0.497266,
2008-05-20, 02:25:05,VALID,1005.31,VALID,0,VALID,95.9942,VALID,0,VALID,23.9389,VALID,268,VALID,0.308594,
2008-05-20, 02:26:05,VALID,1005.36,VALID,0,VALID,96.0247,VALID,0,VALID,23.9973,VALID,267,VALID,0.499219,
2008-05-20, 02:27:05,VALID,1005.37,VALID,0,VALID,96.0018,VALID,0,VALID,24.0363,VALID,265,VALID,0.128906,
2008-05-20, 02:28:05,VALID,1005.39,VALID,0,VALID,96.0705,VALID,0,VALID,24.0752,VALID,275,VALID,0.729297,
2008-05-20, 02:29:05,VALID,1005.42,VALID,0,VALID,96.1086,VALID,0,VALID,24.1531,VALID,286,VALID,0.74375,
2008-05-20, 02:30:05,VALID,1005.44,VALID,0,VALID,96.1315,VALID,0,VALID,24.2504,VALID,290,VALID,0.888281,
2008-05-20, 02:31:05,VALID,1005.45,VALID,0,VALID,96.0095,VALID,0,VALID,24.2894,VALID,291,VALID,0.326172,
2008-05-20, 02:32:05,VALID,1005.44,VALID,0,VALID,95.9027,VALID,0,VALID,24.3478,VALID,289,VALID,0.692969,
2008-05-20, 02:33:05,VALID,1005.49,VALID,0,VALID,95.773,VALID,0,VALID,24.3673,VALID,289,VALID,0.028125,
2008-05-20, 02:34:05,VALID,1005.48,VALID,0,VALID,95.6509,VALID,0,VALID,24.3867,VALID,353,VALID,0.470313,
2008-05-20, 02:35:05,VALID,1005.47,VALID,0,VALID,95.4983,VALID,0,VALID,24.3867,VALID,354,VALID,0.871484,
2008-05-20, 02:36:05,VALID,1005.46,VALID,0,VALID,95.3991,VALID,0,VALID,24.3673,VALID,358,VALID,0.85625,
2008-05-20, 02:37:05,VALID,1005.42,VALID,0,VALID,95.2771,VALID,0,VALID,24.3691,VALID,357,VALID,0.871094,
2008-05-20, 02:38:05,VALID,1005.44,VALID,0,VALID,95.2389,VALID,0,VALID,24.3478,VALID,354,VALID,0.60625,
2008-05-20, 02:39:05,VALID,1005.43,VALID,0,VALID,95.2313,VALID,0,VALID,24.3283,VALID,350,VALID,0.502344,
2008-05-20, 02:40:05,VALID,1005.43,VALID,0,VALID,95.1855,VALID,0,VALID,24.3283,VALID,348,VALID,0.0765625,
2008-05-20, 02:41:05,VALID,1005.41,VALID,0,VALID,95.2084,VALID,0,VALID,24.3283,VALID,270,VALID,0.573047,
2008-05-20, 02:42:05,VALID,1005.39,VALID,0,VALID,95.1932,VALID,0,VALID,24.3283,VALID,280,VALID,0.426562,
2008-05-20, 02:43:05,VALID,1005.39,VALID,0,VALID,95.2084,VALID,0,VALID,24.3283,VALID,284,VALID,0.664844,
2008-05-20, 02:44:05,VALID,1005.4,VALID,0,VALID,95.1855,VALID,0,VALID,24.3478,VALID,285,VALID,0.48125,
2008-05-20, 02:45:05,VALID,1005.37,VALID,0,VALID,94.8499,VALID,0,VALID,24.2699,VALID,285,VALID,0.182031,
2008-05-20, 02:46:05,VALID,1005.36,VALID,0,VALID,94.7049,VALID,0,VALID,24.2097,VALID,285,VALID,0,
2008-05-20, 02:47:05,VALID,1005.36,VALID,0,VALID,94.6591,VALID,0,VALID,24.1726,VALID,285,VALID,0.3125,
2008-05-20, 02:48:05,VALID,1005.35,VALID,0,VALID,94.7812,VALID,0,VALID,24.1744,VALID,298,VALID,0.285937,
2008-05-20, 02:49:05,VALID,1005.32,VALID,0,VALID,94.8117,VALID,0,VALID,24.1531,VALID,318,VALID,0.396875,
2008-05-20, 02:50:05,VALID,1005.3,VALID,0,VALID,94.8651,VALID,0,VALID,24.1142,VALID,319,VALID,0.351563,
2008-05-20, 02:51:05,VALID,1005.27,VALID,0,VALID,95.0253,VALID,0,VALID,24.1336,VALID,330,VALID,0.433984,
2008-05-20, 02:52:05,VALID,1005.28,VALID,0,VALID,95.0253,VALID,0,VALID,24.1142,VALID,330,VALID,0.217578,
2008-05-20, 02:53:05,VALID,1005.24,VALID,0,VALID,94.949,VALID,0,VALID,24.0947,VALID,330,VALID,0.0660156,
2008-05-20, 02:54:05,VALID,1005.25,VALID,0,VALID,95.0101,VALID,0,VALID,24.116,VALID,330,VALID,0,
2008-05-20, 02:55:05,VALID,1005.2,VALID,0,VALID,94.9872,VALID,0,VALID,24.0947,VALID,330,VALID,0,
2008-05-20, 02:56:05,VALID,1005.19,VALID,0,VALID,95.0787,VALID,0,VALID,24.0947,VALID,330,VALID,0,
2008-05-20, 02:57:05,VALID,1005.16,VALID,0,VALID,95.3991,VALID,0,VALID,24.0929,VALID,330,VALID,0.210547,
2008-05-20, 02:58:05,VALID,1005.15,VALID,0,VALID,95.4526,VALID,0,VALID,24.1513,VALID,330,VALID,0.0957031,
2008-05-20, 02:59:05,VALID,1005.14,VALID,0,VALID,95.3457,VALID,0,VALID,24.2115,VALID,330,VALID,0,
2008-05-20, 03:00:05,VALID,1005.13,VALID,0,VALID,95.2695,VALID,0,VALID,24.2523,VALID,330,VALID,0,
2008-05-20, 03:01:05,VALID,1005.15,VALID,0,VALID,95.1398,VALID,0,VALID,24.2504,VALID,330,VALID,0.0269531,
2008-05-20, 03:02:05,VALID,1005.11,VALID,0,VALID,94.7888,VALID,0,VALID,24.1531,VALID,341,VALID,0.507031,
2008-05-20, 03:03:05,VALID,1005.1,VALID,0,VALID,94.6515,VALID,0,VALID,24.0752,VALID,351,VALID,0.469922,
2008-05-20, 03:04:05,VALID,1005.1,VALID,0,VALID,94.6439,VALID,0,VALID,24.0363,VALID,351,VALID,0.442578,
2008-05-20, 03:05:05,VALID,1005.1,VALID,0,VALID,94.7202,VALID,0,VALID,23.9973,VALID,1,VALID,0.569531,
2008-05-20, 03:06:05,VALID,1005.1,VALID,0,VALID,94.7812,VALID,0,VALID,23.9779,VALID,2,VALID,0.504687,
2008-05-20, 03:07:05,VALID,1005.07,VALID,0,VALID,94.9185,VALID,0,VALID,23.9779,VALID,2,VALID,0.510156,
2008-05-20, 03:08:05,VALID,1005.06,VALID,0,VALID,95.1398,VALID,0,VALID,23.9973,VALID,2,VALID,0.328906,
2008-05-20, 03:09:05,VALID,1005.06,VALID,0,VALID,95.2847,VALID,0,VALID,24.0363,VALID,2,VALID,0.510938,
2008-05-20, 03:10:05,VALID,1005.05,VALID,0,VALID,95.5288,VALID,0,VALID,24.1142,VALID,2,VALID,0.492969,
2008-05-20, 03:11:05,VALID,1005.06,VALID,0,VALID,95.3229,VALID,0,VALID,24.1142,VALID,2,VALID,0.458984,
2008-05-20, 03:12:05,VALID,1004.97,VALID,0,VALID,95.1093,VALID,0,VALID,24.0752,VALID,2,VALID,0.312109,
2008-05-20, 03:13:05,VALID,1005.01,VALID,0,VALID,95.0177,VALID,0,VALID,24.0363,VALID,2,VALID,0.435156,
2008-05-20, 03:14:05,VALID,1004.96,VALID,0,VALID,95.0024,VALID,0,VALID,24.0381,VALID,2,VALID,0.338281,
2008-05-20, 03:15:05,VALID,1004.93,VALID,0,VALID,94.9643,VALID,0,VALID,23.9584,VALID,2,VALID,0.244531,
2008-05-20, 03:16:05,VALID,1004.9,VALID,0,VALID,94.8804,VALID,0,VALID,23.9389,VALID,2,VALID,0.276563,
2008-05-20, 03:17:05,VALID,1004.89,VALID,0,VALID,94.8728,VALID,0,VALID,23.8805,VALID,2,VALID,0.297266,
2008-05-20, 03:18:05,VALID,1004.92,VALID,0,VALID,94.9185,VALID,0,VALID,23.8611,VALID,2,VALID,0.287891,
2008-05-20, 03:19:05,VALID,1004.91,VALID,0,VALID,94.9872,VALID,0,VALID,23.8416,VALID,2,VALID,0.483984,
2008-05-20, 03:20:05,VALID,1004.9,VALID,0,VALID,95.0482,VALID,0,VALID,23.8416,VALID,2,VALID,0.403516,
2008-05-20, 03:21:05,VALID,1004.93,VALID,0,VALID,95.0482,VALID,0,VALID,23.8027,VALID,2,VALID,0.395703,
2008-05-20, 03:22:05,VALID,1004.96,VALID,0,VALID,95.2237,VALID,0,VALID,23.8434,VALID,2,VALID,0.427344,
2008-05-20, 03:23:05,VALID,1004.96,VALID,0,VALID,95.3534,VALID,0,VALID,23.8416,VALID,2,VALID,0.212891,
2008-05-20, 03:24:05,VALID,1004.97,VALID,0,VALID,95.3839,VALID,0,VALID,23.8611,VALID,2,VALID,0.118359,
2008-05-20, 03:25:05,VALID,1004.96,VALID,0,VALID,95.2695,VALID,0,VALID,23.8416,VALID,2,VALID,0.258984,
2008-05-20, 03:26:05,VALID,1005,VALID,0,VALID,95.2618,VALID,0,VALID,23.8221,VALID,2,VALID,0.412109,
2008-05-20, 03:27:05,VALID,1004.97,VALID,0,VALID,95.3381,VALID,0,VALID,23.8416,VALID,2,VALID,0.384375,
2008-05-20, 03:28:05,VALID,1004.95,VALID,0,VALID,95.3534,VALID,0,VALID,23.8416,VALID,2,VALID,0.410156,
2008-05-20, 03:29:05,VALID,1004.97,VALID,0,VALID,95.3381,VALID,0,VALID,23.8221,VALID,2,VALID,0.513281,
2008-05-20, 03:30:05,VALID,1004.98,VALID,0,VALID,95.3457,VALID,0.100563,VALID,23.8221,VALID,2,VALID,0.532422,
2008-05-20, 03:31:05,VALID,1004.93,VALID,0,VALID,95.3229,VALID,0,VALID,23.8027,VALID,2,VALID,0.537109,
2008-05-20, 03:32:05,VALID,1004.93,VALID,0,VALID,95.3839,VALID,0,VALID,23.785,VALID,2,VALID,0.409766,
2008-05-20, 03:33:05,VALID,1004.95,VALID,0,VALID,95.6662,VALID,0,VALID,23.8629,VALID,2,VALID,0.273438,
2008-05-20, 03:34:05,VALID,1004.92,VALID,0,VALID,95.6051,VALID,0,VALID,23.8805,VALID,2,VALID,0.183203,
2008-05-20, 03:35:05,VALID,1004.93,VALID,0,VALID,95.5746,VALID,0,VALID,23.8805,VALID,2,VALID,0,
2008-05-20, 03:36:05,VALID,1004.95,VALID,0,VALID,95.4983,VALID,0,VALID,23.8611,VALID,2,VALID,0,
2008-05-20, 03:37:05,VALID,1004.96,VALID,0,VALID,95.4297,VALID,0,VALID,23.8416,VALID,2,VALID,0,
2008-05-20, 03:38:05,VALID,1005,VALID,0,VALID,95.4144,VALID,0,VALID,23.8027,VALID,2,VALID,0,
2008-05-20, 03:39:05,VALID,1005.03,VALID,0,VALID,95.3991,VALID,0,VALID,23.7832,VALID,2,VALID,0.358984,
2008-05-20, 03:40:05,VALID,1005.01,VALID,0,VALID,95.4373,VALID,0,VALID,23.7637,VALID,2,VALID,0.208984,
2008-05-20, 03:41:05,VALID,1005.04,VALID,0,VALID,95.506,VALID,0,VALID,23.7637,VALID,2,VALID,0.319922,
2008-05-20, 03:42:05,VALID,1005.08,VALID,0,VALID,95.5517,VALID,0,VALID,23.7832,VALID,22,VALID,0.403125,
2008-05-20, 03:43:05,VALID,1005.1,VALID,0,VALID,95.5822,VALID,0,VALID,23.7832,VALID,22,VALID,0.307422,
2008-05-20, 03:44:05,VALID,1005.1,VALID,0,VALID,95.689,VALID,0,VALID,23.8221,VALID,22,VALID,0.239063,
2008-05-20, 03:45:05,VALID,1005.11,VALID,0,VALID,95.689,VALID,0,VALID,23.8203,VALID,22,VALID,0.119922,